Tracking 17145 objects as of 24-May-2015
HD Live streaming from Space Station

COSMOS 2418 (GLONASS)

Track COSMOS 2418 (GLONASS) now!
COSMOS 2418 (GLONASS) is classified as:


NORAD ID: 28916
Int'l Code: 2005-050B
Perigee: 19,093.9 km
Apogee: 19,179.8 km
Inclination: 65.2 °
Period: 675.7 minutes
Semi major axis: 25507 km
RCS: 3.9905 m2 (large)
Launch date: December 25, 2005
Source: Commonwealth of Independent States (former USSR) (CIS)
SV:
Your satellite tracking list
Your tracking list is empty





NASA's NSSDC Master Catalog

Two Line Element Set (TLE):
1 28916U 05050B   15143.15160872  .00000010  00000-0  00000+0 0  9990
2 28916 065.1779 091.4468 0016834 327.0242 099.3129 02.13104664 73221

Source of the keplerian elements: AFSPC

N2YO: 359